Location: Heidgraben
(53.7081°N, 9.6576°E)
Time: 23:06:27
(UTC+00:00)

Cosmos 2333 Rocket - Pass Details

Date: 31 October 2020
Orbit: 841 x 861 km, 70.8° (Epoch: 28 November)

Event Time Altitude Azimuth Distance (km) Brightness Sun altitude
Exits shadow 03:33:12 - 337° (NNW) 2,554 4.6 -25.0°
Reaches altitude 10° 03:33:27 10° 338° (NNW) 2,483 4.5 -24.9°
Maximum altitude 03:37:53 23° 30° (NNE) 1,750 4.2 -24.3°
Drops below altitude 10° 03:42:17 10° 81° (E) 2,468 5.7 -23.6°
Sets 03:45:16 0° 96° (E) 3,399 6.7 -23.2°
